SCP
0 -0 -0 -0 0 0 0 -0 -0 -0 -0 -0 -0 -0 -0 -0 0 -0 -0 0 0 0 0 0 -0 -0 -0 0 -0 -0 -0 -0 -0 -0 -0 -0 -0 -0 -0 -0 -0 -0 -0 -0 -0 -0 -0 -0 -0
0 -0 -0 -0 0 0 0 -0 -0 -0 -0 -0 -0 -0 -0 -0 -0 -0 -0 -0 -0 0 0 0 -0 0 0 -0 0 0 -0 -0 -0 -0 -0 -0 0 0 0 0 0 0 -0 0 0 0 0 0 -0
0 0 -0 0 0 0 0 -0 -0 -0 -0 -0 -0 -0 -0 0 -0 -0 -0 0 0 -0 -0 0 -0 0 0 0 0 0 -0 -0 -0 -0 -0 -0 -0 0 0 0 0 0 0 0 0 0 0 0 0
0 0 0 0 0 0 0 -0 -0 -0 -0 -0 -0 -0 -0 -0 -0 -0 -0 0 0 -0 0 0 -0 -0 -0 -0 -0 -0 -0 -0 -0 -0 -0 -0 -0 0 0 0 0 0 0 0 0 0 0 0 0
0 0 0 -0 0 0 0 -0 -0 -0 -0 -0 -0 -0 -0 -0 0 -0 -0 0 0 0 0 0 -0 -0 -0 -0 -0 -0 -0 -0 -0 -0 -0 -0 -0 -0 0 0 0 0 0 0 0 0 0 0 0
0 0 0 0 0 0 0 0 0 0 -0 0 0 0 0 -0 -0 0 -0 -0 0 -0 -0 0 -0 -0 -0 -0 -0 -0 -0 -0 -0 -0 0 0 0 -0 0 0 0 0 0 0 0 0 0 0 0
0 -0 -0 -0 -0 0 0 0 0 -0 0 0 -0 0 0 -0 -1 -0 -0 -0 -0 -0 0 -0 -0 -0 0 0 -0 0 0 0 0 0 0 0 0 0 0 0 0 0 0 0 0 0 0 0 0
0 0 0 0 0 0 0 0 0 0 0 0 0 0 0 -0 -0 0 0 -0 -0 -0 -0 -0 -0 -0 -0 -0 -0 -0 0 0 0 0 0 0 0 0 0 0 0 0 0 0 0 0 0 0 0
0 0 0 0 0 0 0 -0 0 0 0 0 0 -0 0 0 0 0 0 -0 -0 0 0 0 0 0 0 0 -0 -0 -0 0 0 0 0 0 0 0 0 0 0 0 0 0 0 0 0 0 0
0 0 0 0 0 0 0 0 0 0 0 0 0 0 0 0 0 0 0 0 0 0 1 0 0 0 0 0 1 0 0 0 0 0 0 0 0 0 0 0 0 0 0 0 0 0 0 0 0
0 0 0 0 0 0 0 0 0 0 0 0 0 0 0 0 0 0 0 0 0 0 0 0 0 0 0 0 0 0 0 0 1 0 1 1 0 0 0 0 1 1 1 1 1 1 0 0 0
0 0 0 0 0 0 0 0 0 0 0 0 0 0 0 0 0 0 0 0 0 0 0 0 0 0 0 0 0 0 0 0 1 0 0 1 1 0 0 0 0 1 1 1 1 1 1 0 0
0 0 0 0 0 0 0 0 0 0 0 0 0 0 0 0 0 0 0 0 0 0 0 0 0 0 0 0 0 0 0 0 0 0 0 1 1 0 0 0 0 0 1 1 1 0 0 0 0
-0 0 -0 0 0 0 0 0 0 0 0 0 0 0 0 0 0 0 0 0 0 0 0 0 0 0 0 0 0 0 0 0 0 0 0 1 1 1 1 0 0 1 1 1 1 0 0 0 0
-0 -0 -0 -0 0 0 0 0 0 -0 0 0 0 0 0 0 0 0 0 0 0 0 0 0 0 0 0 0 0 0 0 0 0 0 0 0 0 1 1 1 0 1 1 1 1 0 0 0 0
0 0 0 0 0 0 0 0 -0 -0 0 0 0 0 0 0 0 0 0 0 0 0 0 0 0 0 0 0 0 0 0 0 0 0 0 0 0 0 1 2 1 1 0 1 1 1 1 0 0
0 0 0 0 0 0 0 0 0 -0 0 0 0 0 0 0 0 0 0 0 0 0 0 0 0 0 0 0 0 0 0 0 0 0 0 0 0 0 0 1 2 1 1 0 0 0 0 0 0
0 0 -0 -0 0 0 0 0 0 0 0 0 0 0 0 0 0 0 0 0 0 0 0 0 0 0 0 0 0 0 0 0 0 0 0 0 0 0 0 0 1 2 1 1 0 0 0 0 0
0 0 -0 0 0 0 0 0 0 0 0 0 0 0 0 0 0 0 0 0 0 0 0 0 0 0 0 0 0 0 0 0 0 0 0 0 0 0 0 0 0 1 1 1 1 0 0 0 0
0 0 0 0 0 0 0 0 -0 0 0 0 0 0 0 0 0 0 0 0 0 0 0 0 0 0 0 0 0 0 0 0 0 0 -0 -0 0 0 0 0 0 0 1 1 1 0 0 0 0
0 0 0 0 0 0 0 0 0 0 0 0 0 0 0 0 0 0 0 0 0 0 0 0 0 0 0 0 0 0 0 0 0 -0 -0 -0 -0 0 0 0 0 0 1 0 0 0 1 1 0
0 0 0 0 0 0 0 0 0 0 0 0 0 0 0 0 0 0 0 0 0 0 0 0 0 0 0 0 0 0 0 0 -0 -0 -0 -0 -0 -0 0 0 0 0 0 0 0 0 0 1 0
0 0 0 0 0 0 0 0 0 0 0 0 0 0 0 0 0 0 0 0 0 0 0 0 0 0 0 0 0 0 0 0 0 0 0 -0 -0 -0 -0 -0 0 0 0 0 0 0 0 0 1
0 0 0 0 0 0 0 0 0 -0 -0 0 0 0 0 -0 -0 0 -0 0 0 0 0 0 0 0 0 0 0 0 0 0 0 0 0 0 -0 -0 -0 -0 0 0 0 0 0 0 0 0 0
0 0 0 0 0 0 0 0 0 0 0 0 0 -0 -0 -0 -0 -0 -0 -0 0 0 -0 0 0 0 0 0 0 0 0 0 0 0 0 -0 -0 -0 -0 -0 -0 0 0 0 0 0 0 0 0
0 0 0 0 0 0 0 0 0 0 0 0 -0 -0 -0 -0 -0 -0 -0 0 0 0 0 -0 -0 0 0 0 0 0 0 0 0 0 0 0 0 0 -0 -0 -0 0 0 0 0 0 0 0 0
0 0 0 0 0 0 0 0 0 0 0 0 -0 -0 -0 -0 -0 -0 -0 0 0 0 0 0 0 0 0 0 0 0 0 0 0 0 0 0 -0 -0 0 -0 -0 -0 0 0 0 0 0 0 0
0 0 0 0 0 0 0 0 0 0 -0 -0 0 0 -0 -0 0 0 0 0 0 0 0 0 0 0 0 0 0 0 0 0 0 0 0 0 0 -0 -0 -0 -0 0 0 0 0 0 0 0 -0
0 0 0 0 0 0 0 0 0 0 0 0 0 0 0 0 0 0 0 0 0 0 0 0 0 0 0 0 0 0 0 0 0 0 0 0 -0 -0 -0 -0 -0 0 0 0 0 0 0 0 0
0 0 0 0 0 0 0 0 0 0 0 0 0 0 0 0 0 0 0 0 0 0 -0 0 0 0 0 0 0 0 0 0 0 0 0 -0 -0 -0 -0 -0 -0 0 0 0 0 0 0 0 0
Wind_Speed_500mb
22 21 20 6 8 9 9 12 7 13 6 8 19 13 26 28 13 9 71 29 15 28 25 23 20 19 23 28 26 26 30 34 36 36 38 37 34 30 28 28 27 25 23 22 21 22 22 21 17
16 21 5 4 9 9 12 8 15 12 28 43 25 30 4 11 26 33 43 28 24 26 21 18 17 18 26 30 28 26 26 31 33 32 32 33 31 27 24 23 21 19 18 16 15 16 17 17 14
23 18 3 8 6 5 6 11 19 39 50 17 12 8 10 15 19 57 35 29 36 27 21 15 15 17 25 31 29 25 24 25 29 31 29 26 24 22 21 19 18 15 15 13 9 8 10 12 11
20 5 2 9 3 3 2 9 36 20 18 11 28 10 15 17 25 19 13 20 27 27 23 19 16 19 26 29 29 25 23 20 23 26 26 24 21 19 17 16 15 14 13 10 7 5 4 6 7
17 8 9 5 7 8 7 19 43 11 7 21 25 6 9 23 21 44 53 25 13 21 24 22 16 19 22 25 27 25 20 18 18 19 21 20 19 18 17 15 14 13 12 11 9 7 7 5 4
10 7 9 5 10 5 7 29 44 24 16 32 30 30 16 27 24 41 35 54 43 20 29 26 22 18 19 19 20 19 19 17 16 15 17 18 18 18 17 17 17 16 15 13 12 11 11 10 6
7 8 6 4 14 11 10 18 19 23 34 15 25 9 18 37 27 41 48 36 36 32 37 28 24 23 21 18 14 10 7 10 15 17 18 18 18 20 21 21 22 22 22 20 18 17 16 15 12
5 8 10 6 8 3 7 7 21 25 11 30 20 2 9 42 29 51 53 38 39 32 36 27 22 24 26 25 21 16 9 2 5 10 15 19 22 24 25 26 27 27 28 26 25 24 23 21 18
11 9 5 7 8 8 13 8 7 10 17 16 15 24 28 48 42 43 33 31 35 37 29 19 17 24 25 20 16 12 11 3 2 6 10 15 18 23 27 29 30 31 31 32 31 31 30 27 25
8 7 6 3 6 4 7 9 9 6 20 28 37 29 21 45 58 62 45 51 33 45 34 23 23 23 13 10 3 6 9 8 7 7 9 14 18 21 25 28 31 34 35 37 37 37 37 36 33
11 10 6 4 16 18 14 21 9 6 6 37 45 32 19 10 49 62 60 58 51 46 35 26 23 29 13 9 8 9 9 15 18 18 19 20 16 14 17 22 33 36 31 29 32 35 39 41 40
8 1 10 10 12 6 2 6 11 12 14 46 42 38 25 16 9 36 53 45 47 41 28 17 17 13 5 4 5 7 12 10 17 25 26 25 31 26 22 20 22 30 31 22 22 22 25 32 42
8 7 11 9 3 1 3 6 4 6 27 37 34 29 19 27 26 19 36 40 37 27 25 22 18 13 13 21 28 26 24 21 18 17 17 26 33 37 34 29 30 32 32 31 27 30 31 27 23
4 5 14 8 4 2 4 5 8 14 9 31 41 38 27 18 11 33 31 31 28 29 27 27 27 31 36 46 32 30 30 30 27 26 18 23 27 36 45 42 40 39 35 33 35 35 33 33 31
14 15 15 17 8 8 8 11 10 30 21 26 39 34 31 28 25 29 45 45 44 45 38 32 29 29 35 40 38 30 30 33 32 32 33 29 26 32 43 50 51 55 42 38 42 45 42 34 34
9 10 9 19 11 10 10 17 22 38 30 18 36 38 39 38 34 38 42 46 41 38 33 28 19 21 39 30 22 23 24 27 30 31 32 33 36 36 37 42 54 61 65 52 48 52 57 47 42
13 2 4 17 5 5 6 15 24 46 35 15 40 45 45 44 42 42 49 50 45 37 29 14 8 23 20 17 20 21 23 25 28 30 33 34 36 36 41 43 44 52 66 63 57 50 49 53 57
6 5 6 6 7 1 7 15 19 36 36 39 35 38 38 46 51 52 58 53 48 40 21 5 11 15 14 15 19 23 25 25 25 25 28 32 33 35 33 37 42 43 51 62 59 51 44 49 49
5 2 7 8 12 12 2 13 15 32 41 48 64 62 57 46 49 57 63 56 46 31 18 10 3 8 10 17 26 30 34 34 32 33 33 35 36 36 36 30 32 44 44 54 55 61 57 50 51
14 11 8 8 13 9 15 13 11 20 43 62 51 59 54 35 60 74 66 51 40 28 20 17 4 10 15 16 17 22 34 36 39 42 39 42 39 41 38 33 28 28 35 46 50 42 48 55 54
5 9 4 6 9 10 13 12 17 21 52 73 91 85 52 18 20 44 45 44 37 35 30 12 6 16 5 17 17 23 30 34 44 51 46 42 42 43 41 36 28 20 21 28 40 44 53 60 49
6 8 4 13 12 5 6 11 13 11 31 45 56 79 86 52 17 7 1 20 23 24 21 9 7 7 7 11 15 28 33 42 52 55 50 50 50 49 43 38 31 26 23 26 37 45 55 57 63
2 10 7 4 5 7 13 7 9 13 21 18 27 42 51 55 61 58 40 20 2 17 18 15 19 20 14 19 30 33 37 48 50 44 48 54 58 54 53 50 47 40 28 26 39 40 49 57 63
7 14 16 11 6 6 4 6 10 6 8 5 16 28 37 38 37 35 38 39 35 29 17 5 14 16 21 38 48 47 48 50 51 46 55 59 65 62 56 58 55 46 37 32 32 38 50 55 71
20 15 9 10 9 8 8 6 11 10 7 8 15 24 32 36 38 40 44 45 38 34 43 38 44 48 54 60 52 53 46 49 43 48 59 65 66 65 65 63 61 56 49 42 37 40 48 58 61
4 12 9 8 6 18 9 8 11 4 24 23 26 27 30 24 24 28 24 13 30 56 62 64 48 53 61 63 49 43 45 50 50 53 62 65 64 62 62 66 69 63 53 49 48 40 41 51 53
13 9 8 6 6 4 7 5 8 19 17 27 21 22 29 31 29 34 33 39 34 34 32 32 31 37 45 43 38 40 42 48 47 52 60 62 54 58 65 71 75 66 54 49 51 50 45 45 57
5 7 11 8 9 12 8 3 8 20 16 19 23 13 21 26 21 31 37 37 38 47 48 37 42 44 43 37 33 30 35 38 44 50 50 52 58 62 72 83 88 77 61 53 50 51 49 47 54
14 11 8 5 5 2 8 8 10 10 9 15 22 16 30 33 29 29 36 37 42 41 49 50 45 39 26 30 37 39 38 38 41 48 54 60 65 75 87 86 81 73 66 60 57 51 50 47 50
6 5 6 4 11 8 5 10 12 18 25 37 29 43 46 46 52 53 51 54 52 50 54 49 39 36 38 39 41 43 48 54 61 67 72 78 87 92 95 87 79 71 65 54 58 52 50 52 46
Wind_Direction_500mb
340 337 305 351 48 63 331 37 20 133 344 261 167 176 181 147 155 205 147 170 173 170 163 159 164 166 166 161 151 140 144 151 151 152 151 152 152 146 139 133 129 127 123 120 118 116 118 118 110
349 327 349 58 74 54 309 88 66 123 152 112 105 112 135 78 114 152 165 179 191 171 162 163 162 162 160 161 154 143 142 151 157 157 157 158 158 156 149 141 136 135 135 131 127 122 118 118 116
322 322 8 89 96 98 306 43 136 152 158 202 131 105 66 94 134 157 105 144 169 151 150 170 155 150 155 158 155 147 140 149 160 162 162 165 168 167 160 156 150 152 153 146 143 139 127 118 115
344 357 138 86 70 175 178 39 159 149 230 185 129 68 89 96 138 142 156 136 152 163 163 174 159 144 152 159 159 151 143 148 157 166 166 169 175 180 179 177 170 168 169 170 174 186 190 145 130
346 7 41 37 232 194 116 90 112 96 103 142 118 120 59 101 126 144 93 81 166 156 180 165 158 143 143 153 160 161 156 154 158 169 173 176 181 194 196 198 201 200 196 200 211 222 235 224 174
357 42 43 345 289 340 56 81 85 79 71 104 94 105 102 92 136 146 125 126 161 181 189 166 155 146 137 142 155 163 167 174 174 185 188 188 192 206 217 220 221 227 231 235 242 248 249 245 234
125 80 202 303 289 335 158 100 99 100 88 90 122 90 116 108 155 157 144 126 180 187 180 163 154 145 124 109 103 113 146 183 196 202 208 209 212 220 227 232 236 241 244 245 249 256 257 250 248
263 90 8 249 281 220 135 109 93 110 105 128 114 15 75 96 134 149 165 118 139 156 168 153 146 142 133 128 107 73 69 30 269 240 234 230 230 233 238 242 244 247 253 254 254 255 256 254 250
232 63 299 299 32 349 11 114 88 88 123 126 128 145 93 93 122 141 125 124 121 148 142 122 144 164 154 136 115 87 73 35 301 295 297 278 266 260 255 253 253 255 256 259 260 260 259 257 254
115 104 243 146 115 67 30 60 43 27 100 129 131 133 121 101 105 135 131 137 134 134 123 131 164 160 145 171 141 30 340 318 270 292 290 291 277 271 268 268 264 260 260 262 264 265 264 261 259
169 176 192 14 87 54 23 14 28 124 36 158 140 141 135 132 116 126 128 129 124 133 135 131 118 135 155 174 205 240 308 263 268 273 278 283 272 273 276 286 271 266 261 268 269 270 272 271 267
82 96 134 150 93 73 45 26 360 48 154 149 142 146 141 164 183 140 145 148 145 148 154 156 126 127 125 45 337 305 307 325 253 260 273 287 283 273 278 285 297 283 266 271 275 276 296 285 266
72 15 349 153 104 46 136 321 220 273 158 159 161 170 163 161 184 195 158 157 168 183 180 193 216 245 296 301 290 292 285 284 290 289 253 282 290 275 272 279 282 293 282 269 276 276 281 294 282
358 16 320 259 245 235 288 270 346 269 291 184 171 175 174 184 186 210 204 196 204 233 255 273 277 286 296 312 288 285 297 293 273 272 283 268 276 278 276 273 265 271 279 278 272 271 271 274 282
349 355 342 299 273 197 158 327 274 286 284 307 198 179 179 185 219 224 214 215 215 212 219 231 251 280 302 319 308 297 305 303 301 285 266 266 281 284 278 276 269 264 270 280 269 265 264 268 275
20 56 346 284 186 245 146 255 268 281 288 301 206 196 210 206 211 222 216 218 204 213 217 236 271 328 334 324 328 327 321 314 309 303 305 295 277 268 276 272 267 264 261 268 273 268 262 260 264
11 251 286 319 80 78 128 249 285 296 311 303 202 208 216 225 218 203 206 212 218 221 218 207 323 343 349 335 336 335 338 328 317 308 305 303 301 298 275 277 269 265 260 264 268 274 271 267 263
241 309 301 289 301 276 336 308 324 321 320 308 293 270 261 245 218 206 194 195 196 204 194 246 329 356 22 354 332 326 318 310 315 322 322 319 325 317 315 283 282 267 265 266 262 263 270 273 276
173 218 294 289 357 22 179 232 272 333 334 324 308 301 297 268 234 208 198 192 196 209 225 238 259 89 16 344 333 327 329 328 322 316 319 320 323 328 320 318 290 274 263 268 270 267 271 277 261
32 54 355 312 350 46 330 317 306 327 358 354 329 307 283 233 192 186 185 193 211 224 220 238 226 359 341 334 333 336 341 332 330 324 317 303 312 328 331 332 324 294 280 267 267 266 272 270 261
53 80 342 247 327 342 356 342 357 24 40 36 31 41 49 58 143 173 187 203 215 228 230 216 298 305 317 317 314 312 316 327 335 331 320 313 315 316 323 326 326 314 294 284 265 272 263 267 264
27 297 330 341 38 324 18 287 333 34 34 39 41 46 45 48 75 59 329 207 222 207 194 184 226 199 227 272 286 309 316 312 325 332 328 325 317 312 317 325 321 316 297 269 271 275 267 252 264
279 30 0 300 339 53 341 66 271 2 22 9 33 59 59 57 55 55 42 33 80 209 199 192 200 186 193 253 288 297 306 302 309 315 322 326 324 313 309 314 318 311 304 277 268 272 275 267 263
322 17 28 24 61 50 214 104 325 5 280 302 42 48 46 52 54 51 50 40 37 39 24 199 203 219 248 290 290 288 291 296 305 312 316 319 326 318 311 311 313 314 308 281 265 256 254 258 267
42 43 341 358 356 234 307 39 236 232 237 74 54 56 35 31 26 19 1 336 337 349 330 319 299 304 309 296 283 288 274 288 299 306 309 314 320 320 313 314 311 310 304 294 272 267 261 261 268
355 124 148 287 245 283 292 224 187 334 60 49 49 41 33 44 38 44 40 13 288 281 284 303 298 297 293 284 275 264 264 283 291 297 302 308 311 317 317 318 317 309 302 296 286 264 265 269 258
322 7 216 226 235 325 212 7 216 50 35 27 63 44 17 5 358 2 0 8 354 334 315 322 327 298 283 297 275 258 261 280 293 293 297 302 306 310 314 314 317 311 302 294 295 279 264 270 255
96 279 7 6 332 306 342 340 264 1 351 350 346 9 18 9 2 8 0 355 359 352 344 330 319 303 298 288 268 265 277 278 281 287 287 290 297 306 310 312 309 304 295 291 291 283 259 266 255
339 8 7 135 156 253 289 259 16 25 301 332 343 360 6 14 2 343 342 340 334 337 334 323 312 306 291 270 267 270 270 270 272 278 284 293 298 303 307 310 305 300 295 283 281 278 265 256 255
239 263 149 138 284 239 204 258 59 40 20 15 8 350 345 337 333 328 328 324 329 327 322 307 292 285 279 279 280 280 280 284 287 291 293 296 299 301 303 304 298 293 292 284 272 271 264 253 257
Wind_Speed_850mb
22 21 20 6 8 9 9 12 7 13 6 8 19 13 26 28 13 9 71 29 15 28 25 23 20 19 23 28 26 26 30 34 36 36 38 37 34 30 28 28 27 25 23 22 21 22 22 21 17
16 21 5 4 9 9 12 8 15 12 28 43 25 30 4 11 26 33 43 28 24 26 21 18 17 18 26 30 28 26 26 31 33 32 32 33 31 27 24 23 21 19 18 16 15 16 17 17 14
23 18 3 8 6 5 6 11 19 39 50 17 12 8 10 15 19 57 35 29 36 27 21 15 15 17 25 31 29 25 24 25 29 31 29 26 24 22 21 19 18 15 15 13 9 8 10 12 11
20 5 2 9 3 3 2 9 36 20 18 11 28 10 15 17 25 19 13 20 27 27 23 19 16 19 26 29 29 25 23 20 23 26 26 24 21 19 17 16 15 14 13 10 7 5 4 6 7
17 8 9 5 7 8 7 19 43 11 7 21 25 6 9 23 21 44 53 25 13 21 24 22 16 19 22 25 27 25 20 18 18 19 21 20 19 18 17 15 14 13 12 11 9 7 7 5 4
10 7 9 5 10 5 7 29 44 24 16 32 30 30 16 27 24 41 35 54 43 20 29 26 22 18 19 19 20 19 19 17 16 15 17 18 18 18 17 17 17 16 15 13 12 11 11 10 6
7 8 6 4 14 11 10 18 19 23 34 15 25 9 18 37 27 41 48 36 36 32 37 28 24 23 21 18 14 10 7 10 15 17 18 18 18 20 21 21 22 22 22 20 18 17 16 15 12
5 8 10 6 8 3 7 7 21 25 11 30 20 2 9 42 29 51 53 38 39 32 36 27 22 24 26 25 21 16 9 2 5 10 15 19 22 24 25 26 27 27 28 26 25 24 23 21 18
11 9 5 7 8 8 13 8 7 10 17 16 15 24 28 48 42 43 33 31 35 37 29 19 17 24 25 20 16 12 11 3 2 6 10 15 18 23 27 29 30 31 31 32 31 31 30 27 25
8 7 6 3 6 4 7 9 9 6 20 28 37 29 21 45 58 62 45 51 33 45 34 23 23 23 13 10 3 6 9 8 7 7 9 14 18 21 25 28 31 34 35 37 37 37 37 36 33
11 10 6 4 16 18 14 21 9 6 6 37 45 32 19 10 49 62 60 58 51 46 35 26 23 29 13 9 8 9 9 15 18 18 19 20 16 14 17 22 33 36 31 29 32 35 39 41 40
8 1 10 10 12 6 2 6 11 12 14 46 42 38 25 16 9 36 53 45 47 41 28 17 17 13 5 4 5 7 12 10 17 25 26 25 31 26 22 20 22 30 31 22 22 22 25 32 42
8 7 11 9 3 1 3 6 4 6 27 37 34 29 19 27 26 19 36 40 37 27 25 22 18 13 13 21 28 26 24 21 18 17 17 26 33 37 34 29 30 32 32 31 27 30 31 27 23
4 5 14 8 4 2 4 5 8 14 9 31 41 38 27 18 11 33 31 31 28 29 27 27 27 31 36 46 32 30 30 30 27 26 18 23 27 36 45 42 40 39 35 33 35 35 33 33 31
14 15 15 17 8 8 8 11 10 30 21 26 39 34 31 28 25 29 45 45 44 45 38 32 29 29 35 40 38 30 30 33 32 32 33 29 26 32 43 50 51 55 42 38 42 45 42 34 34
9 10 9 19 11 10 10 17 22 38 30 18 36 38 39 38 34 38 42 46 41 38 33 28 19 21 39 30 22 23 24 27 30 31 32 33 36 36 37 42 54 61 65 52 48 52 57 47 42
13 2 4 17 5 5 6 15 24 46 35 15 40 45 45 44 42 42 49 50 45 37 29 14 8 23 20 17 20 21 23 25 28 30 33 34 36 36 41 43 44 52 66 63 57 50 49 53 57
6 5 6 6 7 1 7 15 19 36 36 39 35 38 38 46 51 52 58 53 48 40 21 5 11 15 14 15 19 23 25 25 25 25 28 32 33 35 33 37 42 43 51 62 59 51 44 49 49
5 2 7 8 12 12 2 13 15 32 41 48 64 62 57 46 49 57 63 56 46 31 18 10 3 8 10 17 26 30 34 34 32 33 33 35 36 36 36 30 32 44 44 54 55 61 57 50 51
14 11 8 8 13 9 15 13 11 20 43 62 51 59 54 35 60 74 66 51 40 28 20 17 4 10 15 16 17 22 34 36 39 42 39 42 39 41 38 33 28 28 35 46 50 42 48 55 54
5 9 4 6 9 10 13 12 17 21 52 73 91 85 52 18 20 44 45 44 37 35 30 12 6 16 5 17 17 23 30 34 44 51 46 42 42 43 41 36 28 20 21 28 40 44 53 60 49
6 8 4 13 12 5 6 11 13 11 31 45 56 79 86 52 17 7 1 20 23 24 21 9 7 7 7 11 15 28 33 42 52 55 50 50 50 49 43 38 31 26 23 26 37 45 55 57 63
2 10 7 4 5 7 13 7 9 13 21 18 27 42 51 55 61 58 40 20 2 17 18 15 19 20 14 19 30 33 37 48 50 44 48 54 58 54 53 50 47 40 28 26 39 40 49 57 63
7 14 16 11 6 6 4 6 10 6 8 5 16 28 37 38 37 35 38 39 35 29 17 5 14 16 21 38 48 47 48 50 51 46 55 59 65 62 56 58 55 46 37 32 32 38 50 55 71
20 15 9 10 9 8 8 6 11 10 7 8 15 24 32 36 38 40 44 45 38 34 43 38 44 48 54 60 52 53 46 49 43 48 59 65 66 65 65 63 61 56 49 42 37 40 48 58 61
4 12 9 8 6 18 9 8 11 4 24 23 26 27 30 24 24 28 24 13 30 56 62 64 48 53 61 63 49 43 45 50 50 53 62 65 64 62 62 66 69 63 53 49 48 40 41 51 53
13 9 8 6 6 4 7 5 8 19 17 27 21 22 29 31 29 34 33 39 34 34 32 32 31 37 45 43 38 40 42 48 47 52 60 62 54 58 65 71 75 66 54 49 51 50 45 45 57
5 7 11 8 9 12 8 3 8 20 16 19 23 13 21 26 21 31 37 37 38 47 48 37 42 44 43 37 33 30 35 38 44 50 50 52 58 62 72 83 88 77 61 53 50 51 49 47 54
14 11 8 5 5 2 8 8 10 10 9 15 22 16 30 33 29 29 36 37 42 41 49 50 45 39 26 30 37 39 38 38 41 48 54 60 65 75 87 86 81 73 66 60 57 51 50 47 50
6 5 6 4 11 8 5 10 12 18 25 37 29 43 46 46 52 53 51 54 52 50 54 49 39 36 38 39 41 43 48 54 61 67 72 78 87 92 95 87 79 71 65 54 58 52 50 52 46
Wind_Direction_850mb
340 337 305 351 48 63 331 37 20 133 344 261 167 176 181 147 155 205 147 170 173 170 163 159 164 166 166 161 151 140 144 151 151 152 151 152 152 146 139 133 129 127 123 120 118 116 118 118 110
349 327 349 58 74 54 309 88 66 123 152 112 105 112 135 78 114 152 165 179 191 171 162 163 162 162 160 161 154 143 142 151 157 157 157 158 158 156 149 141 136 135 135 131 127 122 118 118 116
322 322 8 89 96 98 306 43 136 152 158 202 131 105 66 94 134 157 105 144 169 151 150 170 155 150 155 158 155 147 140 149 160 162 162 165 168 167 160 156 150 152 153 146 143 139 127 118 115
344 357 138 86 70 175 178 39 159 149 230 185 129 68 89 96 138 142 156 136 152 163 163 174 159 144 152 159 159 151 143 148 157 166 166 169 175 180 179 177 170 168 169 170 174 186 190 145 130
346 7 41 37 232 194 116 90 112 96 103 142 118 120 59 101 126 144 93 81 166 156 180 165 158 143 143 153 160 161 156 154 158 169 173 176 181 194 196 198 201 200 196 200 211 222 235 224 174
357 42 43 345 289 340 56 81 85 79 71 104 94 105 102 92 136 146 125 126 161 181 189 166 155 146 137 142 155 163 167 174 174 185 188 188 192 206 217 220 221 227 231 235 242 248 249 245 234
125 80 202 303 289 335 158 100 99 100 88 90 122 90 116 108 155 157 144 126 180 187 180 163 154 145 124 109 103 113 146 183 196 202 208 209 212 220 227 232 236 241 244 245 249 256 257 250 248
263 90 8 249 281 220 135 109 93 110 105 128 114 15 75 96 134 149 165 118 139 156 168 153 146 142 133 128 107 73 69 30 269 240 234 230 230 233 238 242 244 247 253 254 254 255 256 254 250
232 63 299 299 32 349 11 114 88 88 123 126 128 145 93 93 122 141 125 124 121 148 142 122 144 164 154 136 115 87 73 35 301 295 297 278 266 260 255 253 253 255 256 259 260 260 259 257 254
115 104 243 146 115 67 30 60 43 27 100 129 131 133 121 101 105 135 131 137 134 134 123 131 164 160 145 171 141 30 340 318 270 292 290 291 277 271 268 268 264 260 260 262 264 265 264 261 259
169 176 192 14 87 54 23 14 28 124 36 158 140 141 135 132 116 126 128 129 124 133 135 131 118 135 155 174 205 240 308 263 268 273 278 283 272 273 276 286 271 266 261 268 269 270 272 271 267
82 96 134 150 93 73 45 26 360 48 154 149 142 146 141 164 183 140 145 148 145 148 154 156 126 127 125 45 337 305 307 325 253 260 273 287 283 273 278 285 297 283 266 271 275 276 296 285 266
72 15 349 153 104 46 136 321 220 273 158 159 161 170 163 161 184 195 158 157 168 183 180 193 216 245 296 301 290 292 285 284 290 289 253 282 290 275 272 279 282 293 282 269 276 276 281 294 282
358 16 320 259 245 235 288 270 346 269 291 184 171 175 174 184 186 210 204 196 204 233 255 273 277 286 296 312 288 285 297 293 273 272 283 268 276 278 276 273 265 271 279 278 272 271 271 274 282
349 355 342 299 273 197 158 327 274 286 284 307 198 179 179 185 219 224 214 215 215 212 219 231 251 280 302 319 308 297 305 303 301 285 266 266 281 284 278 276 269 264 270 280 269 265 264 268 275
20 56 346 284 186 245 146 255 268 281 288 301 206 196 210 206 211 222 216 218 204 213 217 236 271 328 334 324 328 327 321 314 309 303 305 295 277 268 276 272 267 264 261 268 273 268 262 260 264
11 251 286 319 80 78 128 249 285 296 311 303 202 208 216 225 218 203 206 212 218 221 218 207 323 343 349 335 336 335 338 328 317 308 305 303 301 298 275 277 269 265 260 264 268 274 271 267 263
241 309 301 289 301 276 336 308 324 321 320 308 293 270 261 245 218 206 194 195 196 204 194 246 329 356 22 354 332 326 318 310 315 322 322 319 325 317 315 283 282 267 265 266 262 263 270 273 276
173 218 294 289 357 22 179 232 272 333 334 324 308 301 297 268 234 208 198 192 196 209 225 238 259 89 16 344 333 327 329 328 322 316 319 320 323 328 320 318 290 274 263 268 270 267 271 277 261
32 54 355 312 350 46 330 317 306 327 358 354 329 307 283 233 192 186 185 193 211 224 220 238 226 359 341 334 333 336 341 332 330 324 317 303 312 328 331 332 324 294 280 267 267 266 272 270 261
53 80 342 247 327 342 356 342 357 24 40 36 31 41 49 58 143 173 187 203 215 228 230 216 298 305 317 317 314 312 316 327 335 331 320 313 315 316 323 326 326 314 294 284 265 272 263 267 264
27 297 330 341 38 324 18 287 333 34 34 39 41 46 45 48 75 59 329 207 222 207 194 184 226 199 227 272 286 309 316 312 325 332 328 325 317 312 317 325 321 316 297 269 271 275 267 252 264
279 30 0 300 339 53 341 66 271 2 22 9 33 59 59 57 55 55 42 33 80 209 199 192 200 186 193 253 288 297 306 302 309 315 322 326 324 313 309 314 318 311 304 277 268 272 275 267 263
322 17 28 24 61 50 214 104 325 5 280 302 42 48 46 52 54 51 50 40 37 39 24 199 203 219 248 290 290 288 291 296 305 312 316 319 326 318 311 311 313 314 308 281 265 256 254 258 267
42 43 341 358 356 234 307 39 236 232 237 74 54 56 35 31 26 19 1 336 337 349 330 319 299 304 309 296 283 288 274 288 299 306 309 314 320 320 313 314 311 310 304 294 272 267 261 261 268
355 124 148 287 245 283 292 224 187 334 60 49 49 41 33 44 38 44 40 13 288 281 284 303 298 297 293 284 275 264 264 283 291 297 302 308 311 317 317 318 317 309 302 296 286 264 265 269 258
322 7 216 226 235 325 212 7 216 50 35 27 63 44 17 5 358 2 0 8 354 334 315 322 327 298 283 297 275 258 261 280 293 293 297 302 306 310 314 314 317 311 302 294 295 279 264 270 255
96 279 7 6 332 306 342 340 264 1 351 350 346 9 18 9 2 8 0 355 359 352 344 330 319 303 298 288 268 265 277 278 281 287 287 290 297 306 310 312 309 304 295 291 291 283 259 266 255
339 8 7 135 156 253 289 259 16 25 301 332 343 360 6 14 2 343 342 340 334 337 334 323 312 306 291 270 267 270 270 270 272 278 284 293 298 303 307 310 305 300 295 283 281 278 265 256 255
239 263 149 138 284 239 204 258 59 40 20 15 8 350 345 337 333 328 328 324 329 327 322 307 292 285 279 279 280 280 280 284 287 291 293 296 299 301 303 304 298 293 292 284 272 271 264 253 257